Forum


Ask a question

No. FLOSS Question Date
Views
Answers
1 OpenFOAM Permission denied for accessing any file/folder from the main directory(run directory) which was pasted in the run folder. 2021-10-19 11:02:24.252428 7 1
2 OpenFOAM Excel Tasks Help 2021-10-11 11:17:26.751381 23 0
3 OpenFOAM Is there a way to run windows software on Chromebook? 2021-10-06 09:48:33.356098 29 0
4 OpenFOAM Regarding problem in residual plot 2021-09-17 01:56:49.020450 86 3
5 OpenFOAM Negative Initial temperature error in openfoam 2021-09-16 07:12:55.220368 152 13
6 OpenFOAM getting cell dimensions 2021-09-14 10:56:37.767673 87 1
7 OpenFOAM dsmcFoam + cht solver combination possible? 2021-09-05 17:57:38.204638 94 1
8 OpenFOAM how can we average our data over any time interval, after the simulation is finished? 2021-09-02 11:36:00.163268 113 3
9 OpenFOAM large eddy simulation filtering 2021-08-31 06:56:12.406990 113 1
10 OpenFOAM Calculate water depth in openfoam 2021-08-17 04:21:42.156495 148 2
11 OpenFOAM Regarding Time Dependent BC 2021-08-12 04:59:54.375943 146 3
12 OpenFOAM How to find internal field 2021-07-27 09:40:03.930213 191 4
13 OpenFOAM How to write a udf in openfoam 2021-07-26 09:55:06.430047 205 2
14 OpenFOAM error in openfoam 2021-07-23 03:34:57.837153 203 6
15 OpenFOAM Regarding Error in opefoam 2021-07-18 02:07:08.803247 191 9
16 OpenFOAM Mass Flow Rate Calculation coding 2021-07-04 16:25:26.137351 230 2
17 OpenFOAM how to construct another phi in interFoam? 2021-07-02 20:26:21.204588 207 1
18 OpenFOAM Simulating an Aerofoil 2021-07-01 15:07:29.249138 209 1
19 OpenFOAM what does fvc::interpolate(rho) actually do in interFoam? 2021-06-30 18:56:26.123988 202 1
20 OpenFOAM Regarding mappedpatch inlet for wallboiling tutorial from reactingTwoPhaseEulerFoam 2021-06-23 16:32:14.074059 235 4
21 OpenFOAM best salon for keratin treatment in bangalore 2021-05-24 14:41:02.226655 7 0
22 OpenFOAM best b school in bangalore? 2021-05-24 12:17:39.900456 7 0
23 OpenFOAM Digital marketing company in Bangalore 2021-05-24 09:24:33.749760 8 0
24 OpenFOAM Time control settings for a periodic bulk forcing 2021-05-20 12:52:08.114050 330 5
25 OpenFOAM How can I convert a steady state solver to a transient state solver? (time-dependent) 2021-05-13 07:22:42.035917 292 4
26 OpenFOAM Swirl Atomization 2021-05-04 01:44:43.296444 286 1
27 OpenFOAM gcc: error: unrecognized command line option ‘--showme:link’ 2021-04-27 11:00:44.095505 497 1
28 OpenFOAM How to put pressure when using cyclic boundary condition 2021-04-24 07:59:56.793707 322 3
29 OpenFOAM Regarding this error 2021-04-07 03:47:18.194977 360 8
30 OpenFOAM Let the accounting assignment help to finish your assignments on time 2021-03-13 08:46:19.380646 80 4
31 OpenFOAM how i can add the scale function in open foam 2021-03-03 14:40:11.622886 394 3
32 OpenFOAM boundary conditions 2021-02-27 11:09:12.451700 436 3
33 OpenFOAM Value of diffusion coefficient in scalar transport foam 2021-02-18 05:06:23.346334 428 2
34 OpenFOAM Power Law boundary inlet velocity condition 2021-02-06 08:52:36.277770 472 1
35 OpenFOAM Which Company Provide Best landing page designing services In delhi? 2021-02-05 10:18:28.414243 113 0
36 OpenFOAM Wing Motion - Dynamic Mesh using pimpleFoam 2021-01-27 05:08:21.835917 536 9
37 OpenFOAM Faulty mobile download application? 2021-01-09 07:12:14.335900 38 3
38 OpenFOAM Incorrect lift co-efficients with buoyantBoussinesqPimpleFoam 2020-12-28 07:14:52.246656 539 5
39 OpenFOAM MPI parallel run issue for RBF motion solver in foam extend 4.0 2020-12-09 08:56:18.424466 521 2
40 OpenFOAM Openfoam cannot find a single face in the mesh which uses vertices 2020-12-02 16:42:03.926873 599 1
41 OpenFOAM Decreasing the value of y+ 2020-11-29 11:34:07.125783 541 1
42 OpenFOAM Obtaining csv data from xy plot in Paraview 2020-11-05 13:06:17.962619 611 1
43 OpenFOAM 2d pressure swirl atomizer using vof 2020-11-03 17:37:17.735673 793 10
44 OpenFOAM How to create ZeroThicknessWall in SnappyHexMesh? Also Can I use toposet (or splitmesh) to create zone for adding momentum source in buoyantBoussinesqFoams? 2020-10-29 12:43:31.890430 750 4
45 OpenFOAM Difference between foam and algorithm in openfoam 2020-10-29 07:48:12.297067 581 1
46 OpenFOAM Radial Basis Function (RBF) mesh motion solver for pitching motion 2020-10-28 17:35:49.862215 674 2
47 OpenFOAM Types of dynamic mesh motion solver for pitching airfoil 2020-10-28 15:58:19.216544 785 1
48 OpenFOAM AMR to capture shocks 2020-10-24 13:20:43.707589 630 3
49 OpenFOAM Non-Dimensional Contour Plots 2020-10-23 14:01:06.296716 575 3
50 OpenFOAM Problem before Instaling OPENFOAM 2020-09-19 12:46:45.788734 671 2
51 OpenFOAM Large eddy simulation 2020-08-12 05:34:28.148779 770 1
52 OpenFOAM Regarding error in new expression syntax in openfoam 1912 2020-07-15 16:04:36.767775 746 1
53 OpenFOAM How to update supply temperature on boundary based on the measured temperature on another boundary patch in OpenFOAM? 2020-07-03 13:26:43.962960 779 1
54 OpenFOAM PostProcess for OpenFOAM1606+ 2020-06-16 12:37:39.980929 781 1
55 OpenFOAM Mesh generation using blockMesh utility 2020-03-02 11:13:02.251839 1049 10
56 OpenFOAM Convergence problem in steady state simulation of centrifugal fan in openfoam 2019-11-22 07:55:27.815884 1644 1
57 OpenFOAM Where to add new field while using dsmcfoam? 2019-11-22 04:17:40.010364 1161 3
58 OpenFOAM Error: Pcorr goes to nan. (Diverging) 2019-09-12 16:37:05.219232 977 3
59 OpenFOAM Help me choose MFEM vs deal_ii 2019-08-29 07:35:13.851320 1000 2
60 OpenFOAM Choosing appropriate boundary conditions for turbulent quantities 2019-08-13 01:54:04.383335 980 1
61 OpenFOAM Multiple AMI, decreasing time step. 2019-07-15 09:42:15.003499 1107 1
62 OpenFOAM Inlet Velocity 2019-06-28 12:53:09.638190 1081 4
63 OpenFOAM No creation of processed files even after running. 2019-02-06 15:56:59.781942 1069 1
64 OpenFOAM Choosing exact boundary conditions 2018-12-18 04:31:26.729700 1344 1
65 OpenFOAM Regarding Proposal 2018-12-17 05:59:28.228096 1112 1
66 OpenFOAM Query regarding heat flux boundary condition in OpenFOAM 2018-12-16 12:40:09.657563 1103 1
67 OpenFOAM Heat flux boundary condition in OpenFOAM 2018-12-14 19:44:13.938906 2774 1
68 OpenFOAM Boundary condition at inlet 2018-11-10 18:46:57.000000 1328 2
69 OpenFOAM Foam::error::printStack(Foam::Ostream&) at ??:? 2018-09-27 06:00:30.000000 3601 2
70 OpenFOAM Continuity error cannot be removed by adjusting the outflow. 2018-09-19 07:52:53.000000 3180 1
71 OpenFOAM Convergence in Open Foam Simulation 2018-07-13 13:10:12.000000 1230 1
72 OpenFOAM Salome bentpipe to OpenFOAM 2018-07-01 21:39:30.000000 1269 1
73 OpenFOAM Using multiInteraction type patchInteractionModel 2018-05-16 06:46:43.000000 1365 1
74 OpenFOAM Why Initial residual is not equal to the final residual obtained from the previous iteration in case of fvDOM radiation solver? 2018-03-07 06:08:09.000000 1721 1
75 OpenFOAM Looking for Solver for Three Phase Heat Transfer with phase change for Cryogenic System 2017-11-29 05:15:20.000000 1419 1
76 OpenFOAM Resource persons for OPENFOAM Software. 2017-11-22 09:29:39.000000 1341 1
77 OpenFOAM diffusivity directional variables 2017-08-30 12:50:18.000000 1542 1
78 OpenFOAM change of volume inside pipe 2017-08-11 11:55:39.000000 1456 3
79 OpenFOAM OpenFOAM Issue with Porous Media and Buoyancy 2017-08-02 07:11:23.000000 8492 1
80 OpenFOAM vertical loading in interfoam 2017-07-11 15:10:27.000000 1406 1
81 OpenFOAM Convergence while using icoFoam 2017-07-06 09:39:26.000000 1579 1
82 OpenFOAM Simulation Of Flow over cylinder with forward splitter plate 2017-07-03 15:49:32.000000 1407 1
83 OpenFOAM OpenFOAM-1.6.x Installation Error 2017-06-07 10:18:39.000000 1469 1
84 OpenFOAM Dynamic Moving Mesh 2017-05-20 12:08:53.000000 1419 1
85 OpenFOAM How to Create Baffles in Geometry 2017-05-17 10:17:39.000000 3525 1
86 OpenFOAM How to create a internal gate? 2017-04-25 11:30:22.000000 1801 1
87 OpenFOAM Cannot find flow at bottom surface_slump test 2017-04-25 11:17:15.000000 1483 4
88 OpenFOAM plotting at a definite point 2017-04-14 14:01:59.000000 1542 1
89 OpenFOAM getting time-average flow fields within certain time interval 2017-04-09 06:48:05.000000 2256 1
90 OpenFOAM plotting skin friction coefficient 2017-04-03 04:28:55.000000 2973 1
91 OpenFOAM laminar separation bubble 2017-04-02 08:04:30.000000 1371 1
92 OpenFOAM SnappyHexMesh Tutorial 2017-04-01 06:01:29.000000 1957 1
93 OpenFOAM pressure plot in paraFoam 2017-03-27 01:22:03.000000 2604 1
94 OpenFOAM post-processing in paraview 2017-03-10 11:24:48.000000 1893 1
95 OpenFOAM How to find/call each individual cell in a computational domain 2017-03-08 13:50:24.000000 3483 3
96 OpenFOAM multiPhaseEulerFoam case running issue.. 2017-01-17 17:47:23.000000 1903 1
97 OpenFOAM Basic queries regarding cad, mesh and sim 2017-01-16 08:39:10.000000 1485 2
98 OpenFOAM post-processing problem 2016-11-23 13:36:35.000000 1781 1
99 OpenFOAM problem in results 2016-11-21 07:10:46.000000 1512 2
100 OpenFOAM openfoam to firefoam throuh paraview? 2016-11-01 15:07:10.000000 2092 3
101 OpenFOAM No vortex shedding 2016-10-31 05:55:03.000000 1562 1
102 OpenFOAM paraview tools 2016-10-21 05:07:48.000000 1611 1
103 OpenFOAM error while running a solver 2016-10-13 18:09:34.000000 6891 1
104 OpenFOAM SurfaceTracking 2016-10-06 12:32:53.000000 1578 1
105 OpenFOAM boundary condition 2016-09-26 17:04:35.000000 1463 1
106 OpenFOAM plotting the residuals 2016-08-23 14:45:56.000000 2803 1
107 OpenFOAM plotting in paraview 2016-08-16 09:47:55.000000 1505 2
108 OpenFOAM co-efficient of drag and lift 2016-08-03 10:15:57.000000 1726 4
109 OpenFOAM opemFoam 2016-08-02 10:02:33.000000 1662 2
110 OpenFOAM PROBLEM 2016-07-21 04:44:36.000000 1675 1
111 OpenFOAM blockmeshdict file 2016-06-23 05:50:12.000000 1699 1
112 OpenFOAM Writing blockMeshDict file 2016-06-14 04:06:00.000000 1724 1
113 OpenFOAM object inspector menu in paraview 2016-05-25 10:04:12.000000 1942 1
114 OpenFOAM TROUBLE IN SIMULATION 2016-05-15 04:19:14.000000 1974 2
115 OpenFOAM Simulation of Euler-lagrangian bubble using OpenFOAM 2016-05-11 12:28:45.000000 2414 2
116 OpenFOAM OPENFOAM IN WINDOWS 2016-05-10 08:35:05.000000 2083 1
117 OpenFOAM How to plot a graph in Open foam 2016-04-24 17:18:48.000000 2719 1
118 OpenFOAM Error in Turbulence Solver 2016-03-18 18:16:37.000000 7658 6
119 OpenFOAM Simulation error (delta T is decreasing while the iterations are being carried out) 2016-03-12 19:12:05.000000 6939 5
120 OpenFOAM charger making sparking like noise 2015-08-31 13:33:10.000000 1741 1